Weather reports worldwide

Advertisment
Rotterdam Zestienhoven, Netherlands (6344): temperature & dewpoint: 02.08.2020 04:00:00 - 08.08.2020 04:00:00 (CEST)Rotterdam Zestienhoven, Netherlands (6344): temperature 5cm: 02.08.2020 04:00:00 - 08.08.2020 04:00:00 (CEST)Rotterdam Zestienhoven, Netherlands (6344): wind speed & gusts: 02.08.2020 04:00:00 - 08.08.2020 04:00:00 (CEST)Rotterdam Zestienhoven, Netherlands (6344): wind direction: 02.08.2020 04:00:00 - 08.08.2020 04:00:00 (CEST)Rotterdam Zestienhoven, Netherlands (6344): reduced air pressure: 02.08.2020 04:00:00 - 08.08.2020 04:00:00 (CEST)Rotterdam Zestienhoven, Netherlands (6344): visibility: 02.08.2020 04:00:00 - 08.08.2020 04:00:00 (CEST)Rotterdam Zestienhoven, Netherlands (6344): precipitation: 02.08.2020 04:00:00 - 08.08.2020 04:00:00 (CEST)
Date & Time tt [°C] td [°C] tt 5cm [°C] ff [km/h] ff [kn] fx [km/h] fx [kn] dd ppp [hPa] vv [km] rr [mm]
08.08.2020 04:00:00 18,2 17,6 14,0 4 2 4 2 NNE 1018,7 10 0,0
08.08.2020 03:00:00 19,0 17,4 14,5 2 1 4 2 NE 1018,7 10 0,0
08.08.2020 02:00:00 19,2 17,7 14,9 4 2 4 2 N 1018,8 10 0,0
08.08.2020 01:00:00 19,9 17,3 15,5 2 1 4 2 NE 1018,9 10 0,0
08.08.2020 00:00:00 23,3 17,5 16,2 4 2 4 2 NE 1018,7 10 0,0
07.08.2020 23:00:00 22,0 18,9 17,0 2 1 7 4 NE 1018,9 10 0,0
07.08.2020 22:00:00 23,7 18,1 19,4 8 4 11 6 NNW 1019,0 10 0,0
07.08.2020 21:00:00 27,6 17,6 22,4 9 5 11 6 NNW 1018,4 10 0,0
07.08.2020 20:00:00 28,9 17,1 26,9 8 4 18 10 ENE 1018,1 10 0,0
07.08.2020 19:00:00 30,9 16,3 29,9 11 6 18 10 NE 1018,0 10 0,0
07.08.2020 18:00:00 32,0 13,9 31,8 11 6 18 10 NE 1018,3 10 0,0
07.08.2020 17:00:00 32,4 12,9 33,2 9 5 18 10 ENE 1018,6 10 0,0
07.08.2020 16:00:00 32,6 11,3 34,4 9 5 18 10 NE 1018,9 10 0,0
07.08.2020 15:00:00 32,0 13,1 34,2 5 3 18 10 - 1019,1 10 0,0
07.08.2020 14:00:00 32,0 11,9 34,6 4 2 14 8 - 1019,4 10 0,0
07.08.2020 13:00:00 30,9 14,6 33,9 9 5 14 8 E 1019,6 10 0,0
07.08.2020 12:00:00 30,2 16,2 32,4 5 3 11 6 - 1019,8 10 0,0
07.08.2020 11:00:00 27,9 15,9 30,4 4 2 11 6 - 1019,9 10 0,0
07.08.2020 10:00:00 26,3 16,5 28,1 5 3 7 4 E 1019,9 10 0,0
07.08.2020 09:00:00 23,6 16,8 24,2 5 3 7 4 E 1019,8 10 0,0
07.08.2020 08:00:00 21,2 17,3 19,5 5 3 7 4 ENE 1019,6 10 0,0
07.08.2020 07:00:00 18,9 15,9 13,9 4 2 7 4 ENE 1019,5 10 0,0
07.08.2020 06:00:00 17,7 15,3 12,9 5 3 7 4 ENE 1019,1 10 0,0
07.08.2020 05:00:00 18,8 16,4 13,3 8 4 7 4 ENE 1019,0 10 0,0
07.08.2020 04:00:00 18,0 16,9 13,4 4 2 4 2 - 1019,1 10 0,0
07.08.2020 03:00:00 17,9 17,5 13,6 4 2 4 2 NE 1019,3 10 0,0
07.08.2020 02:00:00 18,3 17,3 14,4 4 2 7 4 NE 1019,5 10 0,0
07.08.2020 01:00:00 19,9 17,3 15,9 5 3 7 4 NE 1019,5 10 0,0
07.08.2020 00:00:00 19,9 16,8 16,2 8 4 11 6 NE 1019,6 10 0,0
06.08.2020 23:00:00 20,0 16,5 16,8 8 4 11 6 NNE 1019,4 10 0,0
06.08.2020 22:00:00 21,6 17,0 17,8 4 2 7 4 NNE 1019,3 10 0,0
06.08.2020 21:00:00 22,9 17,3 20,5 5 3 14 8 N 1019,1 10 0,0
06.08.2020 20:00:00 24,5 17,1 23,6 9 5 18 10 N 1018,8 10 0,0
06.08.2020 19:00:00 26,4 18,2 26,7 11 6 22 12 N 1018,7 10 0,0
06.08.2020 18:00:00 27,5 17,8 28,8 13 7 22 12 N 1018,7 10 0,0
06.08.2020 17:00:00 28,3 17,3 30,4 11 6 18 10 N 1018,7 10 0,0
06.08.2020 16:00:00 28,4 16,4 31,8 5 3 22 12 - 1018,7 10 0,0
06.08.2020 15:00:00 28,5 13,0 30,9 11 6 22 12 S 1018,9 10 0,0
06.08.2020 14:00:00 27,2 14,1 29,6 8 4 18 10 SSW 1019,2 10 0,0
06.08.2020 13:00:00 26,6 14,8 29,9 8 4 14 8 SW 1019,3 10 0,0
06.08.2020 12:00:00 25,6 15,0 28,3 4 2 14 8 - 1019,2 10 0,0
06.08.2020 11:00:00 24,2 15,5 26,6 8 4 14 8 SSW 1019,2 10 0,0
06.08.2020 10:00:00 22,6 15,8 23,8 9 5 18 10 SSW 1019,0 10 0,0
06.08.2020 09:00:00 21,1 15,1 19,8 9 5 18 10 S 1018,6 10 0,0
06.08.2020 08:00:00 19,3 15,2 17,9 9 5 22 12 SSE 1018,2 10 0,0
06.08.2020 07:00:00 16,3 14,1 12,1 4 2 7 4 SE 1017,5 10 0,0
06.08.2020 06:00:00 16,1 14,7 11,9 2 1 7 4 SSE 1017,1 10 0,0
06.08.2020 05:00:00 16,1 14,0 11,6 5 3 11 6 SSW 1016,8 10 0,0
06.08.2020 04:00:00 17,1 13,8 13,2 8 4 14 8 WSW 1016,5 10 0,0
06.08.2020 03:00:00 17,2 13,5 13,2 4 2 7 4 - 1016,4 10 0,0
06.08.2020 02:00:00 16,9 13,1 12,2 4 2 7 4 SSE 1016,2 10 0,0
06.08.2020 01:00:00 16,0 13,2 12,1 5 3 7 4 SSE 1016,0 10 0,0
06.08.2020 00:00:00 16,7 13,7 12,8 4 2 7 4 W 1015,9 10 0,0
05.08.2020 23:00:00 17,7 12,0 13,1 4 2 4 2 SE 1015,3 10 0,0
05.08.2020 22:00:00 18,5 12,2 14,3 2 1 7 4 W 1015,5 10 0,0
05.08.2020 21:00:00 20,6 12,3 17,4 5 3 14 8 WNW 1014,9 10 0,0
05.08.2020 20:00:00 24,5 14,1 23,8 5 3 32 18 WNW 1014,3 10 0,0
05.08.2020 19:00:00 26,9 9,2 26,0 21 11 32 18 S 1014,0 10 0,0
05.08.2020 18:00:00 27,2 9,6 27,5 22 12 36 19 S 1014,3 10 0,0
05.08.2020 17:00:00 27,2 10,3 27,7 26 14 40 21 S 1014,4 10 0,0
05.08.2020 16:00:00 27,0 11,2 28,3 26 14 36 19 SSW 1014,6 10 0,0
05.08.2020 15:00:00 26,0 10,9 28,1 21 11 36 19 S 1014,9 10 0,0
05.08.2020 14:00:00 25,5 11,0 27,2 22 12 32 18 S 1015,2 10 0,0
05.08.2020 13:00:00 23,9 11,3 26,1 21 11 40 21 SSW 1015,6 10 0,0
05.08.2020 12:00:00 23,3 12,3 24,4 22 12 32 18 SW 1015,9 10 0,0
05.08.2020 11:00:00 22,1 12,8 22,7 22 12 36 19 SW 1015,9 10 0,0
05.08.2020 10:00:00 20,6 11,4 20,7 21 11 29 16 SW 1015,6 10 0,0
05.08.2020 09:00:00 19,0 11,8 18,9 16 9 25 14 SW 1015,4 10 0,0
05.08.2020 08:00:00 17,1 11,5 16,5 15 8 25 14 S 1014,8 10 0,0
05.08.2020 07:00:00 15,8 11,3 13,9 13 7 25 14 S 1014,5 10 0,0
05.08.2020 06:00:00 15,6 10,6 13,6 16 9 29 16 SSW 1014,3 10 0,0
05.08.2020 05:00:00 16,2 10,5 14,6 16 9 29 16 SSW 1014,1 10 0,0
05.08.2020 04:00:00 16,9 10,4 15,4 18 10 32 18 SSW 1014,4 10 0,0
05.08.2020 03:00:00 17,7 11,5 16,5 18 10 32 18 S 1014,8 10 0,0
05.08.2020 02:00:00 17,7 11,6 15,6 16 9 29 16 S 1015,2 10 0,0
05.08.2020 01:00:00 18,0 12,0 16,3 15 8 22 12 S 1015,4 10 0,0
05.08.2020 00:00:00 17,7 11,5 14,0 13 7 29 16 S 1015,4 10 0,0
04.08.2020 23:00:00 16,2 11,2 12,9 9 5 14 8 SW 1015,8 10 0,0
04.08.2020 22:00:00 17,1 12,0 14,7 8 4 18 10 WSW 1016,1 10 0,0
04.08.2020 21:00:00 19,7 10,5 16,7 8 4 18 10 S 1015,6 10 0,0
04.08.2020 20:00:00 20,9 9,7 18,7 11 6 22 12 S 1015,7 10 0,0
04.08.2020 19:00:00 20,8 9,4 19,5 13 7 25 14 S 1015,9 10 0,0
04.08.2020 18:00:00 21,6 10,1 22,7 11 6 25 14 SW 1016,2 10 0,0
04.08.2020 17:00:00 21,3 9,0 24,1 16 9 29 16 W 1016,9 10 0,0
04.08.2020 16:00:00 21,5 9,4 24,0 13 7 25 14 W 1017,3 10 0,0
04.08.2020 15:00:00 20,8 8,1 24,6 13 7 29 16 WNW 1017,6 10 0,0
04.08.2020 14:00:00 20,2 8,1 24,4 9 5 22 12 WNW 1017,8 10 0,0
04.08.2020 13:00:00 20,1 8,6 23,2 8 4 18 10 - 1017,9 10 0,0
04.08.2020 12:00:00 20,0 9,5 22,1 5 3 18 10 NW 1017,9 10 0,0
04.08.2020 11:00:00 17,9 9,2 19,5 2 1 14 8 - 1017,9 10 0,0
04.08.2020 10:00:00 17,3 9,6 19,3 5 3 11 6 NNE 1018,1 10 0,0
04.08.2020 09:00:00 16,3 11,0 15,9 2 1 7 4 - 1017,8 10 0,0
04.08.2020 08:00:00 14,4 12,8 13,0 2 1 4 2 - 1017,4 10 0,0
04.08.2020 07:00:00 10,8 10,6 6,8 2 1 7 4 WSW 1017,2 10 0,0
04.08.2020 06:00:00 10,2 10,0 6,9 4 2 4 2 SW 1016,8 10 0,0
04.08.2020 05:00:00 10,3 10,2 7,4 8 4 7 4 W 1016,4 10 0,0
04.08.2020 04:00:00 10,5 10,4 8,0 5 3 7 4 WSW 1016,6 6 0,0
04.08.2020 03:00:00 10,5 10,4 8,4 4 2 4 2 - 1016,6 10 0,0
04.08.2020 02:00:00 11,7 11,5 8,9 4 2 7 4 W 1016,7 10 0,0
04.08.2020 01:00:00 12,2 11,5 10,0 2 1 11 6 - 1016,4 10 0,0
04.08.2020 00:00:00 12,5 11,4 10,3 8 4 11 6 NW 1016,1 10 0,0
03.08.2020 23:00:00 14,5 12,3 12,0 5 3 11 6 N 1015,7 10 0,0
03.08.2020 22:00:00 14,8 12,6 12,6 9 5 14 8 NNW 1015,3 10 0,0
03.08.2020 21:00:00 15,9 13,1 14,8 13 7 18 10 NNW 1014,8 10 0,0
03.08.2020 20:00:00 17,8 13,0 17,8 13 7 22 12 NNW 1014,3 10 0,0
03.08.2020 19:00:00 18,7 13,8 20,4 13 7 22 12 NNW 1014,1 10 0,0
03.08.2020 18:00:00 17,8 13,3 19,2 8 4 11 6 NNW 1014,2 10 0,0
03.08.2020 17:00:00 17,5 11,7 19,1 4 2 11 6 - 1014,1 10 0,0
03.08.2020 16:00:00 15,6 13,9 16,1 8 4 11 6 ENE 1014,3 10 0,5
03.08.2020 15:00:00 15,1 13,3 15,4 8 4 25 14 N 1014,3 10 2,0
03.08.2020 14:00:00 14,9 13,1 15,3 15 8 22 12 NW 1014,4 10 0,7
03.08.2020 13:00:00 17,4 13,7 16,7 11 6 18 10 SSW 1013,9 10 0,2
03.08.2020 12:00:00 17,4 14,3 16,7 9 5 18 10 SW 1014,0 10 0,0
03.08.2020 11:00:00 17,0 13,5 17,1 8 4 14 8 SE 1014,3 10 1,0
03.08.2020 10:00:00 16,4 12,9 15,9 4 2 14 8 - 1014,8 10 0,0
03.08.2020 09:00:00 17,8 13,3 18,2 4 2 7 4 - 1014,4 10 0,0
03.08.2020 08:00:00 16,2 13,2 14,8 8 4 25 14 S 1014,2 10 0,0
03.08.2020 07:00:00 15,2 11,8 13,4 9 5 14 8 SSE 1014,1 10 0,0
03.08.2020 06:00:00 15,5 12,1 13,4 11 6 14 8 SSE 1014,1 10 0,0
03.08.2020 05:00:00 14,5 13,3 12,5 5 3 7 4 E 1014,3 10 0,0
03.08.2020 04:00:00 13,3 12,0 10,7 5 3 11 6 ENE 1014,8 10 0,0
03.08.2020 03:00:00 14,5 11,7 9,6 9 5 14 8 SSE 1015,0 10 0,0
03.08.2020 02:00:00 13,3 11,8 9,4 4 2 4 2 - 1015,5 10 0,0
03.08.2020 01:00:00 13,6 11,5 9,8 2 1 4 2 WSW 1015,9 10 0,0
03.08.2020 00:00:00 13,7 12,0 10,3 2 1 4 2 WSW 1015,8 10 0,0
02.08.2020 23:00:00 15,7 11,4 11,3 5 3 7 4 SW 1016,0 10 0,0
02.08.2020 22:00:00 14,7 10,6 11,9 5 3 7 4 W 1016,1 10 0,0
02.08.2020 21:00:00 17,0 11,0 15,1 5 3 11 6 W 1016,0 10 0,0
02.08.2020 20:00:00 18,7 10,5 18,7 8 4 14 8 W 1015,9 10 0,0
02.08.2020 19:00:00 19,8 10,6 21,3 9 5 22 12 WNW 1016,0 10 0,0
02.08.2020 18:00:00 19,8 9,9 22,3 15 8 25 14 W 1016,1 10 0,0
02.08.2020 17:00:00 19,4 10,2 22,7 15 8 25 14 W 1016,1 10 0,0
02.08.2020 16:00:00 20,2 11,3 23,3 15 8 25 14 W 1016,3 10 0,0
02.08.2020 15:00:00 20,2 10,9 23,6 16 9 32 18 WNW 1016,5 10 0,0
02.08.2020 14:00:00 20,3 11,8 22,0 16 9 29 16 W 1016,5 10 0,0
02.08.2020 13:00:00 20,7 13,5 22,7 18 10 29 16 W 1016,2 10 0,0
02.08.2020 12:00:00 19,3 13,2 21,5 15 8 29 16 WNW 1016,2 10 0,0
02.08.2020 11:00:00 19,6 13,4 22,0 16 9 25 14 WNW 1015,7 10 0,0
02.08.2020 10:00:00 19,0 13,9 19,5 13 7 22 12 WNW 1015,2 10 0,0
02.08.2020 09:00:00 19,1 15,4 18,6 15 8 22 12 WNW 1014,8 10 0,0
02.08.2020 08:00:00 17,6 16,1 17,6 11 6 22 12 W 1014,4 10 0,0
02.08.2020 07:00:00 16,9 15,7 16,2 15 8 25 14 SW 1014,3 10 0,0
02.08.2020 06:00:00 16,5 15,1 15,1 13 7 22 12 SSW 1014,1 10 0,0
02.08.2020 05:00:00 16,5 14,8 14,8 9 5 18 10 SSW 1014,2 10 0,0
02.08.2020 04:00:00 16,9 15,3 15,2 13 7 14 8 S 1014,2 10 0,0

tt = temperature
td = dewpoint
tt 5cm = temperature 5cm
ff = wind speed
fx = gusts
dd = wind direction
ppp = reduced air pressure
vv = visibility
rr = precipitation

Next stations